Location: Madden
(51.3728°N, 114.3297°W)
Time: 18:32:44
(UTC+00:00)

CUTE-I - Pass Details

Date: 12 December 2023
Orbit: 807 x 822 km, 98.7° (Epoch: 20 February)

Event Time Altitude Azimuth Distance (km) Brightness Sun altitude
Rises 02:14:09 0° 206° (SSW) 3,322 ? -24.5°
Reaches altitude 10° 02:17:04 10° 223° (SW) 2,398 ? -24.9°
Maximum altitude 02:20:58 21° 270° (W) 1,785 ? -25.5°
Drops below altitude 10° 02:24:54 10° 318° (NW) 2,420 ? -26.1°
Sets 02:27:53 0° 335° (NNW) 3,360 ? -26.6°
